Vacaville, CA

5:01 AM PST on January 21, 2018 (GMT -0800)
Nut Tree

Weather History for KVCB - January, 2014

Change the Weather History Date:

Sunday, January 5, 2014

  Actual Average Record
Temperature  
Mean Temperature 52 °F -  
Max Temperature 68 °F 52 °F 71 °F (2003)
Min Temperature 36 °F 35 °F 18 °F (1949)
Degree Days  
Heating Degree Days 12    
Growing Degree Days 2 (Base 50)    
Moisture  
Dew Point 13 °F    
Average Humidity 27    
Maximum Humidity 55    
Minimum Humidity 8    
Precipitation  
Precipitation 0.00 in - - ()
Sea Level Pressure  
Sea Level Pressure 30.19 in    
Wind  
Wind Speed 4 mph (North)    
Max Wind Speed 9 mph    
Max Gust Speed -    
Visibility 10 miles    
Events      
Averages and records for this station are not official NWS values.
T = Trace of Precipitation, MM = Missing Value Source: NWS Daily Summary

Daily Weather History Graph

Daily Weather History Graph

Search for Another Location

Airport or City:

Trip Planner

Search our weather history database for the weather conditions in past years. The results will help you decide how hot, cold, wet, or windy it might be!

Date:

Astronomy

Jan. 05, 2014 Rise Set
Actual Time 7:25 AM PST 5:01 PM PST
Civil Twilight 6:55 AM PST 5:31 PM PST
Nautical Twilight 6:22 AM PST 6:04 PM PST
Astronomical Twilight 5:50 AM PST 6:36 PM PST
Moon 10:14 AM PST (1/5) 10:30 PM PST (1/5)
Length of Visible Light 10h 35m
Length of Day
9h 36m
Waxing Crescent, 25% of the Moon is Illuminated
Jan 5
Waxing Crescent
Jan 7
First Quarter
Jan 15
Full
Jan 23
Last Quarter
Jan 30
New

Hourly Weather History & Observations

Time (PST) Temp. Windchill Dew Point Humidity Pressure Visibility Wind Dir Wind Speed Gust Speed Precip Events Conditions
12:53 AM 46.0 °F 43.9 °F 15.1 °F 29% 30.12 in 10.0 mi North 4.6 mph - N/A   Clear
1:53 AM 48.0 °F - 14.0 °F 26% 30.13 in 10.0 mi NNW 8.1 mph - N/A   Clear
2:53 AM 48.9 °F - 14.0 °F 25% 30.15 in 10.0 mi North 5.8 mph - N/A   Clear
3:53 AM 46.0 °F 44.8 °F 14.0 °F 28% 30.15 in 10.0 mi North 3.5 mph - N/A   Clear
4:53 AM 44.1 °F 42.5 °F 12.0 °F 27% 30.15 in 10.0 mi North 3.5 mph - N/A   Clear
5:53 AM 41.0 °F 39.0 °F 12.9 °F 32% 30.17 in 10.0 mi North 3.5 mph - N/A   Clear
6:53 AM 42.1 °F 40.2 °F 12.9 °F 31% 30.18 in 10.0 mi Variable 3.5 mph - N/A   Clear
7:53 AM 41.0 °F - 10.9 °F 29% 30.20 in 10.0 mi Calm Calm - N/A   Clear
8:53 AM 50.0 °F - 10.0 °F 20% 30.22 in 10.0 mi North 5.8 mph - N/A   Clear
9:53 AM 57.9 °F - 8.1 °F 14% 30.24 in 10.0 mi North 6.9 mph - N/A   Clear
10:53 AM 62.1 °F - 6.1 °F 11% 30.23 in 10.0 mi NNE 9.2 mph - N/A   Clear
11:53 AM 64.9 °F - 3.0 °F 9% 30.21 in 10.0 mi North 5.8 mph - N/A   Clear
12:53 PM 68.0 °F - 5.0 °F 8% 30.18 in 10.0 mi NE 9.2 mph - N/A   Clear
1:53 PM 68.0 °F - 6.1 °F 9% 30.17 in 10.0 mi Variable 5.8 mph - N/A   Clear
2:53 PM 68.0 °F - 7.0 °F 9% 30.16 in 10.0 mi Variable 4.6 mph - N/A   Clear
3:53 PM 66.9 °F - 9.0 °F 10% 30.17 in 10.0 mi NNE 4.6 mph - N/A   Clear
4:53 PM 57.0 °F - 17.1 °F 21% 30.17 in 10.0 mi East 3.5 mph - N/A   Clear
5:53 PM 46.9 °F - 17.1 °F 30% 30.19 in 10.0 mi Calm Calm - N/A   Clear
6:53 PM 43.0 °F 41.3 °F 19.9 °F 40% 30.20 in 10.0 mi WNW 3.5 mph - N/A   Clear
7:53 PM 41.0 °F - 21.0 °F 45% 30.21 in 10.0 mi Calm Calm - N/A   Clear
8:53 PM 37.9 °F - 19.9 °F 48% 30.21 in 10.0 mi Calm Calm - N/A   Clear
9:53 PM 37.9 °F 35.5 °F 19.9 °F 48% 30.22 in 10.0 mi WSW 3.5 mph - N/A   Clear
10:53 PM 39.0 °F - 21.0 °F 49% 30.23 in 10.0 mi Calm Calm - N/A   Clear
11:53 PM 36.0 °F - 21.0 °F 55% 30.23 in 10.0 mi Calm Calm - N/A   Clear